Lapse_Rate
4.2 4.0 4.0 4.4 4.6 5.2 6.3 6.9 7.0 6.4 6.9 5.7 4.9 5.7 4.8 3.7 4.1 3.7 3.9 4.8 5.5 5.4 5.9 5.8 5.2 4.6 3.9 3.4 3.1 2.9 3.0 2.7 2.5 2.5 2.5 2.6 3.2 3.3 3.4 3.0 3.0 3.3 3.9
4.1 4.1 4.0 4.4 4.5 5.0 6.0 6.7 7.2 7.3 7.2 6.3 4.7 4.5 4.9 4.4 4.4 4.0 3.1 2.1 3.6 4.7 5.4 5.8 5.2 3.8 3.6 3.1 3.0 2.7 2.6 2.6 2.6 2.6 2.7 3.1 3.4 3.5 3.4 3.3 3.0 2.8 3.1
3.6 3.5 4.1 4.2 4.0 3.9 4.8 5.7 6.2 6.3 6.8 5.9 5.5 4.5 4.5 4.1 3.6 3.3 3.0 3.0 2.8 2.8 3.6 4.3 4.7 4.5 3.9 3.6 3.2 3.1 2.9 2.8 2.9 2.9 2.8 2.7 3.0 3.3 3.4 3.5 3.3 3.3 3.3
3.0 3.2 4.1 4.0 3.5 3.5 4.9 5.8 6.5 6.6 6.6 6.6 5.7 5.0 3.9 3.4 3.1 2.9 2.7 3.3 2.2 3.1 3.0 3.1 3.4 3.9 4.1 4.2 4.1 3.7 3.5 3.5 3.2 3.1 2.9 2.9 2.9 2.9 2.8 2.9 3.1 3.3 3.3
2.4 3.0 3.2 3.7 3.4 4.1 4.7 5.9 5.6 5.9 5.6 4.9 4.8 3.9 3.4 3.1 3.1 3.1 2.5 2.1 1.7 2.5 2.4 2.0 2.3 2.7 3.3 3.7 4.4 4.5 4.2 3.1 3.1 2.9 2.7 2.5 2.3 2.5 2.5 2.2 2.2 2.2 2.4
2.1 2.7 2.7 2.6 3.0 4.5 5.1 5.5 5.7 5.1 6.0 6.2 4.4 2.7 2.3 2.4 3.2 2.6 2.1 1.9 1.1 1.6 2.3 2.5 2.9 1.9 2.1 2.6 3.6 4.5 4.6 3.8 3.5 2.8 2.6 2.4 2.4 2.3 2.0 1.8 1.8 1.7 1.8
1.9 2.2 2.7 3.1 2.9 4.7 4.8 5.0 5.2 5.6 5.6 5.8 5.1 3.5 2.6 2.1 1.7 1.3 1.7 1.4 1.1 1.3 1.6 1.7 2.1 1.9 1.6 1.6 2.4 3.6 4.1 3.8 3.3 2.5 2.2 2.4 1.7 1.6 1.5 1.4 1.4 1.3 1.5
2.2 2.3 2.3 2.5 2.0 3.9 4.3 4.7 4.9 5.3 5.8 5.9 7.0 5.7 4.7 3.8 1.8 1.4 1.5 1.3 1.1 1.3 1.0 1.7 2.1 1.9 1.9 1.7 1.4 1.6 2.4 2.7 2.5 1.9 1.8 1.4 0.7 0.8 0.8 0.8 0.6 0.7 0.7
2.7 2.3 2.2 1.9 2.6 3.4 4.6 4.5 5.0 5.5 6.3 5.7 5.4 7.4 6.5 6.9 3.9 3.0 1.6 1.5 1.2 1.0 0.8 1.3 2.1 2.1 2.0 1.9 1.4 0.0 0.1 1.1 1.9 2.1 1.8 1.1 0.4 0.2 0.2 0.3 0.4 0.3 0.3
2.3 2.4 2.6 2.3 2.6 2.7 4.0 4.2 4.1 5.2 6.0 6.8 5.6 4.8 4.4 5.9 7.8 4.4 2.6 2.1 1.9 1.6 1.1 1.1 1.4 2.0 2.0 2.1 0.9 -0.4 -0.4 -0.3 0.9 1.1 0.9 0.4 0.2 0.1 0.2 0.2 -0.1 -0.3 0.5
0.7 2.1 2.6 2.8 3.4 3.5 3.7 4.2 4.4 4.6 5.3 6.4 7.0 5.5 5.0 5.1 5.2 4.7 3.9 2.3 2.1 2.4 1.4 1.3 1.6 2.3 2.2 2.5 1.9 -0.0 -0.2 -0.2 0.1 0.7 1.1 0.7 0.6 0.4 0.1 -0.1 -0.6 -0.4 1.3
3.5 3.2 3.0 3.2 3.2 3.5 3.3 3.7 3.8 3.9 4.8 5.0 5.7 6.1 6.4 6.4 5.6 4.9 4.0 3.8 4.1 2.6 2.5 1.9 1.9 2.4 2.8 3.1 1.9 0.8 0.6 0.7 0.9 0.5 0.5 0.4 0.5 0.3 -0.2 -0.7 -1.1 0.3 2.9
4.2 4.2 3.6 3.5 4.0 3.7 3.2 3.6 4.0 3.6 4.2 4.7 5.0 6.0 6.0 6.5 6.0 5.6 4.6 2.8 4.3 3.1 3.4 2.8 2.4 2.7 2.8 3.1 2.7 1.5 1.3 1.3 1.4 1.0 1.0 1.3 0.8 -0.3 -1.0 -1.1 -1.2 1.3 3.1
5.3 4.5 4.1 3.8 3.8 3.4 3.0 3.0 3.6 3.9 4.0 4.4 4.6 4.6 5.7 5.7 5.5 6.2 5.5 3.7 4.8 5.4 4.8 3.3 2.5 3.2 3.3 3.0 2.3 1.8 0.7 2.2 1.3 1.2 1.7 1.5 1.0 0.3 -0.6 -0.8 -0.3 1.6 2.9
5.0 4.7 4.3 4.4 3.8 3.3 3.3 3.0 3.8 3.1 3.6 3.8 4.3 4.7 5.1 4.2 4.4 5.1 5.6 5.9 5.9 6.7 7.5 4.8 3.7 3.3 3.9 3.4 2.3 2.4 1.8 2.1 2.2 1.3 1.6 1.8 1.7 1.4 0.3 0.8 1.6 2.8 4.5
4.5 4.2 4.4 4.3 4.3 3.9 3.8 4.0 3.9 3.4 3.6 3.0 3.8 3.9 4.1 3.9 4.2 4.5 5.1 5.6 5.5 6.3 6.7 4.8 4.4 3.3 3.6 3.4 2.9 3.4 2.1 2.4 3.7 2.1 2.3 2.3 2.4 2.0 1.7 2.3 2.8 3.0 4.6
4.4 4.1 4.4 4.6 4.5 4.3 4.3 4.3 4.2 3.9 4.2 3.9 3.4 3.8 3.8 3.6 4.3 4.4 4.4 5.1 5.6 6.3 5.3 2.9 3.7 4.3 5.2 5.0 3.9 3.9 3.9 5.7 4.2 3.8 3.7 3.2 3.0 2.6 2.5 2.5 2.2 2.2 2.9
4.5 4.8 4.8 4.6 3.8 3.5 3.8 3.5 3.1 3.4 3.7 4.1 4.3 4.1 3.8 4.4 4.4 4.1 4.4 4.4 5.3 4.7 5.1 2.0 2.8 4.0 5.3 6.0 5.5 4.5 6.0 5.4 5.9 5.2 4.4 4.3 3.7 3.6 2.5 2.6 2.4 2.4 2.6
4.3 4.3 4.5 4.5 4.1 4.0 4.1 3.7 4.3 2.6 3.8 3.2 3.5 5.1 4.8 5.0 4.9 4.5 4.2 5.1 4.9 3.8 3.7 2.9 2.8 4.6 6.2 5.7 6.7 5.8 5.8 5.0 6.8 5.7 4.7 5.0 4.5 3.8 3.6 3.3 3.2 2.9 2.3
4.2 4.5 4.7 4.9 4.8 4.4 3.8 2.8 2.3 1.6 2.2 3.0 3.1 4.3 4.8 4.5 4.7 4.9 4.6 4.0 3.3 4.8 4.4 4.4 4.9 6.2 5.4 5.9 7.6 6.0 5.9 7.3 7.3 5.7 4.8 5.1 5.1 4.6 4.6 4.5 4.0 3.4 2.9
4.4 4.8 4.6 4.5 4.3 3.6 2.9 2.5 1.9 2.0 3.0 2.3 3.3 4.3 4.3 2.9 1.9 2.3 4.7 4.5 4.0 5.5 7.5 6.6 6.0 6.7 7.4 7.6 7.9 7.7 7.9 6.8 6.2 7.0 7.7 6.6 6.4 6.7 7.6 6.1 6.9 5.9 4.0
3.7 4.1 4.3 4.2 3.8 3.1 1.6 1.9 2.0 1.9 2.5 3.5 3.6 3.9 4.0 3.1 2.5 2.2 2.4 2.6 4.1 7.1 7.9 7.4 6.7 7.4 7.5 7.3 8.8 7.6 7.5 8.2 8.0 5.8 9.0 7.2 7.0 7.1 7.6 8.9 5.5 5.7 7.3
3.0 2.5 2.0 1.9 1.7 1.7 2.0 2.4 2.3 2.8 3.7 4.1 4.6 5.2 4.7 3.4 3.1 2.7 1.6 2.1 3.2 3.1 4.1 6.9 5.7 6.1 5.4 5.3 5.9 7.3 7.8 8.9 8.7 5.2 8.4 6.9 7.9 6.9 6.6 7.0 5.4 4.7 5.1
1.5 1.2 1.4 1.6 1.5 2.2 2.7 2.5 2.6 3.4 3.7 3.9 4.0 4.1 3.9 3.3 2.7 2.3 2.7 2.7 2.6 3.2 2.1 3.0 5.5 4.1 4.3 4.9 5.9 6.8 7.7 6.9 5.0 4.6 7.1 7.3 6.5 5.5 5.4 5.0 4.4 4.3 4.0
2.7 2.4 2.5 2.5 2.2 2.4 2.9 2.7 3.5 3.8 3.5 3.5 3.5 3.2 3.5 3.4 3.0 3.4 3.8 3.0 3.4 2.6 1.4 2.0 1.4 1.5 2.4 3.1 4.6 5.4 4.9 6.1 4.5 4.6 4.3 5.7 4.9 5.5 5.4 4.7 4.3 3.4 3.7
2.4 2.7 2.9 3.3 3.5 3.6 3.9 3.7 4.3 4.9 4.2 4.3 3.9 3.7 3.3 3.9 4.5 3.0 3.0 3.3 2.8 1.5 1.0 0.8 -0.0 -0.1 1.0 3.1 3.6 5.6 5.8 5.4 4.0 4.8 4.1 5.9 5.0 6.1 6.1 5.4 5.2 4.7 5.0
Wind_Speed
4 4 3 2 2 1 1 1 3 5 5 5 7 11 10 10 11 11 12 15 19 23 22 23 22 21 21 21 19 18 18 17 18 18 19 18 19 19 18 18 18 16 16
4 3 3 2 1 0 0 1 3 5 4 7 8 11 10 12 14 15 17 23 26 25 24 22 22 20 19 19 17 17 17 16 15 16 15 16 16 15 15 16 16 17 16
3 3 2 1 1 2 3 3 4 5 5 6 7 10 11 11 15 14 15 18 23 27 26 24 22 21 20 18 18 16 17 16 16 16 15 15 15 15 14 16 16 16 15
4 3 1 2 3 3 3 3 3 4 4 4 5 5 9 11 15 16 15 16 20 18 22 24 22 20 19 17 16 16 15 15 16 17 16 15 15 16 17 16 16 16 16
6 3 3 3 2 4 4 3 3 3 4 6 6 7 6 6 10 15 16 17 18 17 19 21 21 19 17 16 15 14 15 15 16 16 16 16 16 17 18 18 18 17 17
6 5 4 4 2 3 3 2 3 4 4 6 8 8 7 9 10 12 13 14 17 15 14 11 13 18 18 18 15 14 14 14 15 15 15 15 15 16 17 17 18 18 17
5 4 3 3 2 1 2 3 4 6 4 8 7 6 7 8 9 9 12 12 13 13 13 12 11 10 14 17 16 14 14 14 15 14 16 17 18 18 17 17 18 18 17
7 3 2 2 3 1 2 4 5 4 3 7 4 4 3 3 6 6 7 9 10 10 11 12 11 11 10 12 15 16 14 14 14 15 15 16 17 16 17 18 19 19 20
3 1 2 1 2 3 3 3 4 5 5 7 5 3 3 4 4 3 6 5 6 8 9 10 11 10 10 11 11 14 13 13 13 14 15 15 15 16 17 18 18 19 19
2 3 4 4 4 3 3 3 3 4 4 8 4 3 1 4 4 3 3 3 5 5 6 7 9 10 10 11 15 14 13 12 12 14 14 14 14 16 17 17 18 19 19
6 6 5 4 3 4 3 3 3 5 6 4 7 4 4 3 4 3 4 4 3 4 6 6 7 9 10 9 11 12 12 12 13 13 13 14 15 16 17 19 20 20 20
3 4 4 3 2 3 3 3 3 4 5 5 5 6 6 5 6 4 3 5 7 4 4 6 7 9 9 10 13 13 12 13 13 14 14 14 15 17 18 20 22 21 21
4 6 7 5 3 4 3 2 3 3 4 5 6 6 5 5 2 5 4 5 4 4 3 4 5 8 10 10 12 14 12 13 13 14 14 14 15 17 19 20 21 21 20
4 5 6 6 6 5 4 4 2 2 2 3 4 6 5 5 4 5 5 7 5 3 5 6 8 8 10 11 14 15 15 12 13 14 14 15 16 17 19 19 21 20 21
4 5 6 5 6 5 5 4 3 4 3 2 2 3 3 3 4 5 6 8 5 7 8 8 4 12 12 12 14 13 14 12 12 14 15 15 16 17 19 19 19 19 20
5 5 6 6 5 5 5 3 2 1 1 0 2 3 1 1 2 3 5 7 5 5 5 5 5 11 16 14 14 14 16 15 12 15 14 15 16 17 18 18 18 20 20
4 4 5 6 6 7 6 5 4 4 3 3 2 1 3 2 1 1 2 3 4 3 7 4 5 12 13 13 15 14 13 11 13 13 14 14 15 15 17 18 17 19 19
3 4 4 5 6 7 7 7 5 4 5 4 3 3 3 2 3 3 1 0 1 1 3 12 10 9 11 14 15 14 13 10 12 13 14 14 15 15 17 18 17 17 19
3 3 4 5 7 7 7 6 6 5 4 5 4 4 3 2 1 2 2 2 2 2 5 7 9 9 9 12 10 12 12 11 12 14 14 14 15 15 16 17 17 17 20
3 3 3 4 5 6 7 8 8 8 7 5 5 4 3 2 1 1 2 3 3 2 4 6 8 10 10 11 9 9 8 8 6 12 13 12 12 15 14 15 20 18 17
3 3 3 4 5 7 6 9 9 8 8 7 6 4 4 6 7 5 1 2 2 3 4 7 8 8 9 11 11 8 8 8 6 8 8 7 7 9 9 13 15 17 16
1 2 4 5 6 4 12 14 11 7 7 7 7 6 6 9 9 9 7 4 3 7 8 7 7 10 11 10 8 9 9 9 6 5 6 5 6 7 10 11 13 16 16
3 2 4 6 6 8 13 14 13 7 8 7 7 6 5 5 8 8 10 9 10 9 3 6 7 7 9 10 10 11 10 9 5 9 8 5 5 5 7 10 11 12 15
3 3 4 5 6 4 12 14 13 8 7 7 6 6 5 5 4 5 5 5 5 5 5 2 2 6 6 12 11 10 10 8 8 7 4 5 3 4 5 8 10 11 12
4 3 3 5 6 7 13 14 11 8 8 7 6 6 5 4 6 7 7 8 8 8 14 11 12 11 14 11 12 11 9 9 6 4 1 4 5 5 4 6 7 10 11
4 4 4 4 7 7 12 11 9 6 8 6 6 6 6 4 7 7 7 7 8 6 5 7 12 14 12 10 9 3 7 7 5 4 4 4 7 4 3 3 5 6 6
Wind_Direction
149 146 128 117 99 97 135 139 93 92 105 98 125 134 114 96 96 87 88 100 117 116 113 109 104 96 87 81 79 81 75 71 71 69 66 61 58 56 53 51 51 48 46
133 139 138 138 152 112 15 97 92 104 108 105 95 108 105 97 91 81 79 68 70 82 91 95 94 91 86 84 74 70 69 65 65 64 60 54 52 48 42 40 37 39 34
137 134 146 152 110 85 101 99 86 93 111 104 97 95 93 90 88 82 81 84 72 68 76 84 80 81 82 82 78 75 71 67 64 63 58 55 52 48 44 40 35 30 21
54 74 90 103 107 101 97 99 99 103 101 107 110 102 98 94 93 91 88 88 90 81 72 78 79 78 77 77 78 75 72 69 67 62 60 57 57 55 49 44 37 29 21
58 78 71 79 103 111 107 114 95 84 114 108 99 90 76 83 91 99 92 90 88 94 92 83 84 80 77 73 73 73 73 69 68 66 64 58 54 52 47 42 37 33 27
61 70 95 114 103 113 119 111 117 86 120 117 100 77 61 55 84 90 91 94 94 95 100 101 91 78 73 69 66 68 72 70 68 63 57 52 52 50 47 42 35 28 22
68 89 107 115 112 150 144 142 122 129 128 136 113 83 61 57 55 67 90 96 90 93 99 93 93 92 78 68 62 64 65 64 63 58 54 55 47 42 37 32 25 16 8
18 18 29 178 91 201 197 187 170 152 141 174 157 128 145 105 61 48 84 89 95 95 89 91 87 83 84 78 72 65 59 61 62 60 64 60 50 43 38 30 24 17 11
269 255 244 118 206 210 205 197 203 191 174 187 205 178 161 181 131 68 59 85 96 97 96 94 94 88 85 86 84 72 63 59 60 62 58 54 48 45 40 34 28 20 12
248 288 239 195 181 194 225 216 203 218 206 199 190 211 343 134 172 154 114 97 111 107 100 99 97 93 85 82 79 71 68 65 65 66 63 56 52 48 43 35 28 21 14
173 205 226 216 199 201 202 215 208 219 218 230 223 183 179 162 160 147 160 164 130 130 121 122 116 111 100 97 90 80 77 73 71 67 62 58 52 48 45 39 32 25 19
189 237 236 238 212 221 230 218 211 223 229 231 231 225 199 184 181 167 134 165 168 158 143 135 129 127 121 110 101 95 86 83 79 75 67 60 54 49 44 41 36 30 21
199 213 208 202 212 213 206 237 241 228 221 219 226 241 240 232 189 174 147 156 165 158 162 158 145 141 133 128 119 109 94 86 82 74 67 62 56 54 49 45 42 37 27
215 198 206 209 212 203 198 198 213 254 256 262 232 222 229 235 225 208 172 161 160 174 176 156 168 158 150 141 130 121 106 91 83 76 68 64 57 53 51 50 47 38 34
218 210 211 210 208 214 223 226 210 194 202 192 218 261 248 216 217 219 212 199 180 181 193 183 160 173 160 147 144 134 120 106 92 85 72 64 58 55 54 51 49 47 40
217 205 208 209 201 197 199 203 221 257 248 140 161 162 166 339 302 265 223 204 210 179 163 170 180 167 163 152 149 144 128 115 98 85 78 71 63 56 55 54 53 50 42
242 229 216 206 201 195 192 191 187 178 184 153 112 113 110 107 85 330 271 225 201 180 144 132 148 161 158 155 153 140 136 136 106 93 81 75 68 58 57 51 52 52 48
283 264 234 224 209 196 190 186 177 172 170 161 135 122 105 109 108 72 32 336 218 59 137 147 154 160 167 162 156 145 143 132 120 101 84 71 70 59 60 51 52 51 52
296 262 240 233 216 201 185 174 166 127 134 124 127 146 129 142 123 99 80 10 30 64 132 153 152 160 164 157 153 147 139 115 125 105 88 74 67 63 55 51 54 53 52
284 263 244 239 223 188 170 152 140 126 123 112 97 103 97 89 64 33 56 75 56 81 114 142 157 164 163 170 170 158 144 146 125 109 85 83 78 69 61 54 52 59 53
306 278 227 199 183 169 162 150 140 129 139 130 126 118 95 91 89 64 22 97 104 128 157 163 161 165 169 178 178 164 156 147 133 136 129 110 91 74 63 65 55 54 59
25 197 190 170 159 141 131 130 133 131 146 148 134 127 114 104 97 93 86 62 221 213 192 186 179 187 177 180 166 165 156 159 150 182 148 114 111 84 61 57 54 50 57
106 143 143 137 133 135 142 136 134 142 150 152 148 147 131 113 111 108 85 79 67 70 36 213 184 186 173 178 173 167 174 173 150 153 149 114 122 92 67 64 53 55 49
129 147 134 124 128 135 141 136 136 139 140 139 139 139 145 138 126 127 115 97 81 70 57 62 170 159 151 171 176 178 165 128 118 133 178 131 137 92 76 65 50 58 54
123 108 116 123 127 135 145 149 141 139 134 130 128 129 142 152 156 153 138 131 114 92 71 71 99 108 126 136 151 149 156 155 139 155 134 135 149 121 86 69 67 59 57
116 135 122 119 142 144 158 157 144 141 144 140 133 124 128 138 146 158 150 146 128 106 99 101 88 84 95 114 120 171 160 156 137 154 158 153 162 168 147 77 70 69 76